PRSS-1

Last updated on Fri Aug 08 2025 00:02:07 GMT+0000 (Coordinated Universal Time)

1 65055U 25164A 25218.89449133 .00003689 00000+0 26527-3 0 9998 2 65055 41.1297 259.8170 0006318 277.6954 82.3142 15.05313367 1002

Satellite not in orbit

PRSS-1